Regional Weather Roundup
Issued by NWS

Home | Current Version | Previous Version | Text Only | Print | Product List | Glossary Off
Versions: 1 2 3 4 5 6 7 8 9 10 11 12 13 14 15 16 17 18 19 20 21 22 23 24 25 26 27 28 29 30 31 32 33 34 35 36 37 38 39 40 41 42 43 44 45 46 47 48 49 50

000
ASUS43 KDTX 051310
RWRMI
MICHIGAN HOURLY REGIONAL WEATHER ROUNDUP
NATIONAL WEATHER SERVICE DETROIT/PONTIAC MI
900 AM EDT SAT SEP 05 2015

NOTE: "FAIR" INDICATES FEW OR NO CLOUDS BELOW 12,000 FEET WITH NO
SIGNIFICANT WEATHER AND/OR OBSTRUCTION TO VISIBILITY.

MIZ047>049-052>055-059>063-066>070-074>076-081>083-051400-
SOUTHEAST LOWER MICHIGAN

CITY           SKY/WX    TMP DP  RH WIND       PRES   REMARKS
ADRIAN         CLOUDY    68  65  90 S8        30.17R
ALMA           FOG       66  66 100 CALM      30.12S VSB 1/4
ANN ARBOR      PTSUNNY   68  67  96 S6        30.16S
BAD AXE        FOG       69  69  99 S5        30.13R VSB 1/2
CARO           FOG       69  69 100 S5        30.12S VSB 1/2
DETROIT CITY   MOSUNNY   74  68  81 SW8       30.14F
DETROIT        PTSUNNY   71  67  87 S9        30.16S
FLINT          FOG       72  68  87 SW5       30.13S VSB 1
GROSSE ILE     LGT RAIN  72  68  88 CALM      30.14S
HILLSDALE      MOSUNNY   68  68  99 SE3       30.15R
HOWELL         MOSUNNY   70  69  99 S3        30.15R FOG

CITY           SKY/WX    TMP DP  RH WIND       PRES   REMARKS
JACKSON        MOSUNNY   71  66  84 SE3       30.13S
LAMBERTVILLE   HVY RAIN  70  65  86 S6        30.18R VSB 3/4
LANSING        MOSUNNY   69  67  93 CALM      30.13S
LAPEER         CLOUDY    69  69 100 CALM      30.14S FOG
MASON          MOSUNNY   70  67  92 S3        30.14S FOG
MONROE         RAIN      69  66  92 SW14      30.17R
MT. CLEMENS    CLOUDY    71  70  97 S10       30.14R FOG
PONTIAC        PTSUNNY   71  70  96 S7        30.15R FOG
PORT HOPE        N/A     70  69  97 VRB3      30.10S
PORT HURON     FOG       70  70 100 S3        30.15R VSB 1
TRI CITIES     FOG       69  67  93 SE5       30.13R VSB 1/4
MIDLAND        FOG       67  67  98 CALM      30.11R VSB<1/4
TROY           CLOUDY    71  70  96 S8        30.18R FOG
SAGINAW HB     FOG       68  68 100 S6        30.12R VSB 1/4
$$
MIZ043>046-050>051-056>058-064>065-071>073-077>080-051400-
SOUTHWEST LOWER MICHIGAN

CITY           SKY/WX    TMP DP  RH WIND       PRES   REMARKS
BATTLE CREEK   PTSUNNY   71  66  84 S6        30.13R
BENTON HARBOR  SUNNY     71  66  84 S3        30.10R
BIG RAPIDS     FOG       67  66  98 CALM      30.12R VSB 1/4
COLDWATER      CLOUDY    71  67  86 SW5       30.13S
FREMONT        FOG       66  66 100 CALM      30.11R VSB 1/4
HOLLAND        MOSUNNY   69  66  90 SE3       30.11R FOG
GRAND RAPIDS   TSTM      69  67  93 VRB3      30.12R VSB 1/2
IONIA          FAIR      68  68 100 CALM      30.11S
KALAMAZOO      TSTM      71  67  87 S8        30.12S
LUDINGTON      FOG       69  67  94 E3        30.10S VSB 3/4
MARSHALL       MOSUNNY   69  65  87 S3        30.13S
MOUNT PLEASANT FOG       68  66  94 CALM      30.11S VSB 1/4
MUSKEGON       FOG       69  67  93 E3        30.10R VSB 1/4
SOUTH HAVEN    PTSUNNY   68  66  93 CALM      30.11R
$$
MIZ016>042-051400-
NORTHERN LOWER MICHIGAN

CITY           SKY/WX    TMP DP  RH WIND       PRES   REMARKS
ALPENA         CLOUDY    70  66  87 CALM      30.11S
BEAVER ISLAND  CLOUDY    69  68  97 CALM      30.08F FOG
BELLAIRE       CLOUDY    69  67  95 S5        30.10R FOG
CADILLAC       CLOUDY    67  67  98 CALM      30.12R FOG
CHARLEVOIX     PTSUNNY   69  69  99 CALM      30.12S FOG
FRANKFORT      FOG       67  67 100 CALM      30.10R VSB 1/4
GAYLORD        CLOUDY    68  68 100 S3        30.12R FOG
GRAYLING       CLOUDY    69  67  93 CALM      30.13S FOG
HARBOR SPRINGS PTSUNNY   69  66  93 E5        30.09S
HOUGHTON LAKE  CLOUDY    68  66  93 W3        30.13R FOG
MANISTEE       CLOUDY    64  63  94 CALM      30.10S VSB<1/4
OSCODA         FOG       69  68  98 SW5       30.10S VSB 1/2
PELLSTON       MOSUNNY   69  66  90 CALM      30.09F
ROGERS CITY    CLOUDY    70  67  90 CALM      30.12S FOG
TRAVERSE CITY  CLOUDY    69  67  93 CALM      30.09R FOG
$$
MIZ007>008-015-051400-
EASTERN UPPER MICHIGAN

CITY           SKY/WX    TMP DP  RH WIND       PRES   REMARKS
KINROSS        MOSUNNY   66  64  94 E7        30.10F
MACKINAC ISLAN SUNNY     67  65  91 E6        30.09S
NEWBERRY       PTSUNNY   65  63  93 SE6       30.09F
S. S. MARIE    CLOUDY    67  61  81 E5        30.11S
MUNISING         N/A     71  67  87 CALM      30.08R
$$
MIZ004>006-011>014-085-051400-
CENTRAL UPPER MICHIGAN

CITY           SKY/WX    TMP DP  RH WIND       PRES   REMARKS
MANISTIQUE     CLOUDY    66  65  96 CALM      30.08S
ESCANABA       CLOUDY    68  66  94 CALM      30.07S
MENOMINEE      CLOUDY    66  63  88 CALM      30.08S
SAWYER-GWINN   FOG       66  64  94 SW7       30.10R VSB 1/4
$$
MIZ001>003-009>011-084-051400-
WESTERN UPPER MICHIGAN

CITY           SKY/WX    TMP DP  RH WIND       PRES   REMARKS
IRON MOUNTAIN  FOG       62  61  96 CALM      30.10R VSB 1/4
HOUGHTON       FOG       63  62  97 S7        30.05S VSB 1/4
COPPER HARBOR    N/A     67  65  93 SW9G20    30.03F
IRONWOOD       CLOUDY    66  66 100 E3        30.03S
$$

ABBREVIATIONS USED IN REMARKS
   TC - TEMPERATURE IN CELSIUS
  WCI - WIND CHILL INDEX
   HX - HEAT INDEX
  VSB - VISIBILITY




USA.gov is the U.S. government's official web portal to all federal, state and local government web resources and services.